Location: Newark
(44.3681°N, 100.3364°W)
Time: 17:10:40
(UTC+00:00)

Explorer 7 - Pass Details

Date: 19 February 2020
Orbit: 485 x 679 km, 50.3° (Epoch: 03 April)

Event Time Altitude Azimuth Distance (km) Brightness Sun altitude
Rises 19:16:59 0° 221° (SW) 2,948 11.2 34.2°
Reaches altitude 10° 19:19:26 10° 215° (SW) 2,014 10.7 34.1°
Maximum altitude 19:23:51 45° 143° (SE) 830 8.8 34.0°
Drops below altitude 10° 19:28:02 10° 71° (ENE) 1,907 9.4 33.9°
Sets 19:30:18 0° 65° (ENE) 2,775 10.1 33.8°
